Weather History for Camarillo, CA

Change the Weather History Date:

Saturday, August 4, 2012

  Actual Average Record
Temperature  
Mean Temperature 67 °F 67 °F  
Max Temperature 74 °F 77 °F 85 °F (1971)
Min Temperature 60 °F 58 °F 50 °F (1951)
Degree Days  
Heating Degree Days 0 0  
Month to date heating degree days 0 0  
Since 1 June heating degree days 73 53  
Since 1 July heating degree days 33 10  
Cooling Degree Days 2 3  
Month to date cooling degree days 5 12  
Year to date cooling degree days 39 137  
Since 1 June cooling degree days 24 106  
Growing Degree Days 16 (Base 50)    
Moisture  
Dew Point 58 °F    
Average Humidity 78    
Maximum Humidity 90    
Minimum Humidity 66    
Precipitation  
Precipitation 0.01 in 0.00 in 0.05 in (1955)
Month to date precipitation 0.03 0.00  
Year to date precipitation 5.71 11.00  
Since 1 July precipitation 0.03 0.02  
Sea Level Pressure  
Sea Level Pressure 29.92 in    
Wind  
Wind Speed 5 mph (WSW)    
Max Wind Speed 14 mph    
Max Gust Speed 18 mph    
Visibility 10 miles    
Events      
T = Trace of Precipitation, MM = Missing Value Source: NWS Daily Summary

Daily Weather History Graph

Daily Weather History Graph

Search for Another Location

Airport:

Trip Planner

Search our weather history database for the weather conditions in past years. The results will help you decide how hot, cold, wet, or windy it might be!

Date:

Astronomy

Aug. 04, 2012 Rise Set
Actual Time 6:09 AM PDT 7:54 PM PDT
Civil Twilight 5:42 AM PDT 8:21 PM PDT
Nautical Twilight 5:09 AM PDT 8:54 PM PDT
Astronomical Twilight 4:35 AM PDT 9:28 PM PDT
Moon 9:18 PM PDT (8/4) 8:51 AM PDT (8/4)
Length of Visible Light 14h 38m
Length of Day
13h 44m
Waning Gibbous, 92% of the Moon is Illuminated
Aug 4
Waning Gibbous
Aug 9
Last Quarter
Aug 17
New
Aug 24
First Quarter
Aug 31
Full

Hourly Weather History & Observations

Time (PDT) Temp. Dew Point Humidity Pressure Visibility Wind Dir Wind Speed Gust Speed Precip Events Conditions
12:14 AM 60.8 °F 57.2 °F 88% 29.86 in 8.0 mi Calm Calm - N/A   Partly Cloudy
12:55 AM 60.1 °F 57.0 °F 90% 29.88 in 9.0 mi Calm Calm - N/A   Clear
1:55 AM 61.0 °F 57.0 °F 87% 29.89 in 10.0 mi West 4.6 mph - N/A   Clear
2:46 AM 60.8 °F 57.2 °F 88% 29.86 in 9.0 mi West 6.9 mph - N/A   Mostly Cloudy
2:55 AM 60.1 °F 57.9 °F 93% 29.89 in 10.0 mi WNW 4.6 mph - N/A   Mostly Cloudy
3:53 AM 60.8 °F 57.2 °F 88% 29.86 in 10.0 mi SSW 5.8 mph - N/A   Scattered Clouds
3:55 AM 60.1 °F 57.9 °F 93% 29.88 in 10.0 mi SSW 6.9 mph - N/A   Partly Cloudy
4:18 AM 60.8 °F 57.2 °F 88% 29.87 in 10.0 mi South 3.5 mph - N/A   Mostly Cloudy
4:27 AM 60.8 °F 57.2 °F 88% 29.86 in 10.0 mi Calm Calm - N/A   Overcast
4:55 AM 61.0 °F 57.9 °F 90% 29.90 in 10.0 mi South 3.5 mph - N/A   Overcast
5:42 AM 60.8 °F 57.2 °F 88% 29.88 in 10.0 mi Calm Calm - N/A   Overcast
5:55 AM 61.0 °F 57.9 °F 90% 29.90 in 10.0 mi Calm Calm - N/A   Overcast
6:55 AM 62.1 °F 57.9 °F 86% 29.92 in 10.0 mi North 3.5 mph - N/A   Mostly Cloudy
7:55 AM 63.0 °F 57.9 °F 84% 29.94 in 8.0 mi Calm Calm - N/A   Mostly Cloudy
8:55 AM 64.0 °F 59.0 °F 84% 29.95 in 8.0 mi Calm Calm - N/A   Scattered Clouds
9:48 AM 66.2 °F 60.8 °F 83% 29.94 in 9.0 mi Variable 3.5 mph - 0.01 in   Mostly Cloudy
9:55 AM 66.0 °F 60.1 °F 81% 29.96 in 9.0 mi Calm Calm - 0.01 in   Mostly Cloudy
10:55 AM 66.0 °F 60.1 °F 81% 29.96 in 8.0 mi West 6.9 mph - N/A   Overcast
11:51 AM 68.0 °F 60.8 °F 78% 29.93 in 9.0 mi WSW 5.8 mph - N/A   Scattered Clouds
11:55 AM 68.0 °F 60.1 °F 76% 29.96 in 9.0 mi Calm Calm - N/A   Scattered Clouds
12:55 PM 72.0 °F 61.0 °F 68% 29.96 in 10.0 mi SW 9.2 mph - N/A   Clear
1:55 PM 72.0 °F 61.0 °F 68% 29.95 in 10.0 mi SW 9.2 mph 18.4 mph N/A   Clear
2:55 PM 71.1 °F 60.1 °F 68% 29.93 in 10.0 mi West 11.5 mph - N/A   Clear
3:55 PM 71.1 °F 59.0 °F 66% 29.91 in 10.0 mi WSW 6.9 mph - N/A   Clear
4:55 PM 71.1 °F 59.0 °F 66% 29.91 in 10.0 mi WSW 8.1 mph - N/A   Clear
5:55 PM 68.0 °F 57.9 °F 70% 29.91 in 10.0 mi West 10.4 mph - N/A   Clear
6:55 PM 64.9 °F 57.0 °F 75% 29.93 in 10.0 mi West 9.2 mph - N/A   Clear
7:55 PM 63.0 °F 55.9 °F 78% 29.94 in 10.0 mi West 5.8 mph - N/A   Clear
8:55 PM 63.0 °F 55.9 °F 78% 29.94 in 10.0 mi Calm Calm - N/A   Clear
9:55 PM 62.1 °F 55.9 °F 80% 29.96 in 10.0 mi WNW 5.8 mph - N/A   Clear
10:55 PM 61.0 °F 57.9 °F 90% 29.96 in 10.0 mi West 4.6 mph - N/A   Clear
11:55 PM 60.1 °F 57.9 °F 93% 29.97 in 10.0 mi WNW 3.5 mph - N/A   Clear